When you browse on this site, cookies collect data to enhance your experience and personalize the content and advertising you see.
Visit our Privacy Policy to learn more. By continuing to use the site, you agree to this use of cookies and data.
  • en Suisse
  • Liste des pays
  • À 7 jours
  • Température de l'eau
  • Carte satellitaire
  • Carte météo
  • Widgets météo
  • user-avatar
    Se connecter

    Météo par heure à Kipungo

    Ce jour, 21 Mars, Jeudi

    Heure Température Précipitation Vent Pression Humidité
    00:00 +23°C° 0 mm 1 m/s 653 mmHg 60%
    01:00 +22°C° 0 mm 1 m/s 653 mmHg 79%
    02:00 +21°C° 0.1 mm 1 m/s 652 mmHg 82%
    03:00 +21°C° 0.1 mm 1 m/s 652 mmHg 85%
    04:00 +18°C° 0.1 mm 0 m/s 652 mmHg 89%
    05:00 +19°C° 0 mm 0 m/s 652 mmHg 87%
    06:00 +19°C° 0 mm 0 m/s 653 mmHg 85%
    07:00 +20°C° 0 mm 0 m/s 653 mmHg 82%
    08:00 +24°C° 0 mm 0 m/s 654 mmHg 69%
    09:00 +27°C° 0 mm 0 m/s 655 mmHg 56%
    10:00 +31°C° 0 mm 0 m/s 656 mmHg 43%
    11:00 +34°C° 0 mm 1 m/s 656 mmHg 38%
    12:00 +35°C° 0 mm 2 m/s 655 mmHg 32%
    13:00 +36°C° 0 mm 3 m/s 655 mmHg 27%
    14:00 +35°C° 0 mm 3 m/s 654 mmHg 29%
    15:00 +35°C° 0 mm 3 m/s 654 mmHg 32%
    16:00 +34°C° 0 mm 3 m/s 653 mmHg 34%
    17:00 +31°C° 0 mm 2 m/s 653 mmHg 40%
    18:00 +29°C° 0 mm 2 m/s 653 mmHg 47%
    19:00 +27°C° 0 mm 1 m/s 653 mmHg 53%
    20:00 +26°C° 0 mm 1 m/s 653 mmHg 56%
    21:00 +25°C° 0 mm 1 m/s 653 mmHg 59%
    22:00 +24°C° 0 mm 1 m/s 654 mmHg 63%
    23:00 +23°C° 0.1 mm 1 m/s 653 mmHg 67%

    Demain, 22 Mars, Vendredi

    Heure Température Précipitation Vent Pression Humidité
    00:00 +22°C° 0.1 mm 1 m/s 653 mmHg 71%
    01:00 +21°C° 0.1 mm 1 m/s 653 mmHg 76%
    02:00 +21°C° 0.6 mm 1 m/s 652 mmHg 80%
    03:00 +20°C° 0.6 mm 1 m/s 652 mmHg 85%
    04:00 +17°C° 0.6 mm 0 m/s 652 mmHg 89%
    05:00 +20°C° 0 mm 1 m/s 652 mmHg 88%
    06:00 +21°C° 0 mm 1 m/s 652 mmHg 87%
    07:00 +21°C° 0 mm 1 m/s 653 mmHg 85%
    08:00 +25°C° 0 mm 1 m/s 654 mmHg 72%
    09:00 +29°C° 0 mm 1 m/s 655 mmHg 58%
    10:00 +32°C° 0 mm 1 m/s 656 mmHg 44%
    11:00 +34°C° 0 mm 2 m/s 656 mmHg 38%
    12:00 +35°C° 0 mm 3 m/s 655 mmHg 31%
    13:00 +36°C° 0 mm 4 m/s 655 mmHg 25%
    14:00 +35°C° 0 mm 3 m/s 654 mmHg 28%
    15:00 +34°C° 0 mm 3 m/s 654 mmHg 32%
    16:00 +33°C° 0 mm 3 m/s 653 mmHg 35%
    17:00 +30°C° 0 mm 3 m/s 653 mmHg 41%
    18:00 +28°C° 0 mm 2 m/s 653 mmHg 48%
    19:00 +26°C° 0 mm 2 m/s 653 mmHg 54%
    20:00 +26°C° 0.2 mm 2 m/s 654 mmHg 58%
    21:00 +25°C° 0.2 mm 2 m/s 654 mmHg 63%
    22:00 +24°C° 0.2 mm 2 m/s 655 mmHg 67%
    23:00 +23°C° 0.3 mm 2 m/s 654 mmHg 73%

    Après-demain, 23 Mars, Samedi

    Heure Température Précipitation Vent Pression Humidité
    00:00 +21°C° 0.3 mm 2 m/s 654 mmHg 78%
    01:00 +21°C° 0.3 mm 2 m/s 654 mmHg 84%
    02:00 +21°C° 0 mm 1 m/s 653 mmHg 85%
    03:00 +21°C° 0 mm 1 m/s 653 mmHg 86%
    04:00 +20°C° 0 mm 1 m/s 652 mmHg 87%
    05:00 +21°C° 0 mm 1 m/s 653 mmHg 85%
    06:00 +21°C° 0 mm 1 m/s 653 mmHg 83%
    07:00 +20°C° 0 mm 0 m/s 654 mmHg 81%
    08:00 +24°C° 0 mm 1 m/s 654 mmHg 72%
    09:00 +26°C° 0 mm 1 m/s 655 mmHg 62%
    10:00 +29°C° 0 mm 1 m/s 655 mmHg 53%
    11:00 +31°C° 0 mm 1 m/s 655 mmHg 45%
    12:00 +32°C° 0 mm 2 m/s 655 mmHg 38%
    13:00 +35°C° 0 mm 2 m/s 655 mmHg 31%
    14:00 +35°C° 0 mm 3 m/s 654 mmHg 32%
    15:00 +34°C° 0 mm 3 m/s 654 mmHg 33%
    16:00 +34°C° 0 mm 3 m/s 653 mmHg 34%
    17:00 +31°C° 0 mm 2 m/s 653 mmHg 41%
    18:00 +28°C° 0 mm 2 m/s 653 mmHg 48%
    19:00 +26°C° 0 mm 2 m/s 653 mmHg 55%
    20:00 +25°C° 0.7 mm 1 m/s 653 mmHg 66%
    21:00 +23°C° 0.7 mm 1 m/s 653 mmHg 76%
    22:00 +21°C° 0.7 mm 1 m/s 654 mmHg 86%
    23:00 +21°C° 0.5 mm 1 m/s 653 mmHg 88%

    24 Mars, Dimanche

    Heure Température Précipitation Vent Pression Humidité
    00:00 +20°C° 0.5 mm 2 m/s 653 mmHg 89%
    01:00 +20°C° 0.5 mm 2 m/s 653 mmHg 90%
    02:00 +20°C° 0 mm 2 m/s 653 mmHg 90%
    03:00 +20°C° 0 mm 2 m/s 652 mmHg 89%
    04:00 +21°C° 0 mm 1 m/s 652 mmHg 89%
    05:00 +21°C° 0.2 mm 1 m/s 653 mmHg 88%
    06:00 +21°C° 0.2 mm 1 m/s 653 mmHg 87%
    07:00 +21°C° 0.2 mm 1 m/s 653 mmHg 86%
    08:00 +23°C° 0.1 mm 1 m/s 654 mmHg 76%
    09:00 +26°C° 0.1 mm 1 m/s 655 mmHg 66%
    10:00 +28°C° 0.1 mm 1 m/s 655 mmHg 57%
    11:00 +30°C° 0 mm 1 m/s 655 mmHg 49%
    12:00 +32°C° 0 mm 1 m/s 655 mmHg 40%
    13:00 +35°C° 0 mm 1 m/s 655 mmHg 32%
    14:00 +34°C° 0 mm 1 m/s 654 mmHg 35%
    15:00 +33°C° 0 mm 1 m/s 654 mmHg 37%
    16:00 +32°C° 0 mm 1 m/s 653 mmHg 39%
    17:00 +30°C° 0 mm 1 m/s 653 mmHg 47%
    18:00 +27°C° 0 mm 1 m/s 653 mmHg 55%
    19:00 +25°C° 0 mm 1 m/s 653 mmHg 62%
    20:00 +24°C° 0.5 mm 1 m/s 653 mmHg 68%
    21:00 +23°C° 0.5 mm 2 m/s 653 mmHg 73%
    22:00 +21°C° 0.5 mm 2 m/s 654 mmHg 79%
    23:00 +21°C° 0 mm 2 m/s 653 mmHg 81%

    25 Mars, Lundi

    Heure Température Précipitation Vent Pression Humidité
    00:00 +21°C° 0 mm 2 m/s 653 mmHg 82%
    01:00 +20°C° 0 mm 2 m/s 653 mmHg 84%
    02:00 +20°C° 0 mm 2 m/s 653 mmHg 85%
    03:00 +20°C° 0 mm 2 m/s 652 mmHg 85%
    04:00 +20°C° 0 mm 1 m/s 652 mmHg 86%
    05:00 +21°C° 0 mm 1 m/s 652 mmHg 84%
    06:00 +21°C° 0 mm 1 m/s 653 mmHg 82%
    07:00 +21°C° 0 mm 1 m/s 653 mmHg 80%
    08:00 +25°C° 0 mm 1 m/s 654 mmHg 65%
    09:00 +29°C° 0 mm 1 m/s 655 mmHg 50%
    10:00 +30°C° 0 mm 0 m/s 656 mmHg 35%
    11:00 +33°C° 0 mm 1 m/s 656 mmHg 32%
    12:00 +34°C° 0 mm 1 m/s 655 mmHg 29%
    13:00 +35°C° 0 mm 1 m/s 654 mmHg 27%
    14:00 +34°C° 0 mm 1 m/s 654 mmHg 29%
    15:00 +33°C° 0 mm 1 m/s 653 mmHg 32%
    16:00 +32°C° 0 mm 1 m/s 653 mmHg 35%
    17:00 +30°C° 0 mm 1 m/s 653 mmHg 41%
    18:00 +29°C° 0 mm 1 m/s 653 mmHg 46%
    19:00 +27°C° 0 mm 1 m/s 653 mmHg 52%
    20:00 +25°C° 0.1 mm 1 m/s 653 mmHg 60%
    21:00 +24°C° 0.1 mm 2 m/s 653 mmHg 67%
    22:00 +23°C° 0.1 mm 2 m/s 653 mmHg 75%
    23:00 +23°C° 0 mm 2 m/s 653 mmHg 78%

    26 Mars, Mardi

    Heure Température Précipitation Vent Pression Humidité
    00:00 +21°C° 0 mm 3 m/s 653 mmHg 80%
    01:00 +20°C° 0 mm 3 m/s 653 mmHg 83%
    02:00 +20°C° 0 mm 2 m/s 652 mmHg 85%
    03:00 +19°C° 0 mm 2 m/s 652 mmHg 87%
    04:00 +20°C° 0 mm 1 m/s 652 mmHg 89%
    05:00 +20°C° 0 mm 1 m/s 652 mmHg 85%
    06:00 +21°C° 0 mm 1 m/s 653 mmHg 82%
    07:00 +19°C° 0 mm 0 m/s 654 mmHg 78%
    08:00 +23°C° 0 mm 0 m/s 654 mmHg 67%
    09:00 +26°C° 0 mm 0 m/s 655 mmHg 56%
    10:00 +31°C° 0 mm 1 m/s 656 mmHg 44%
    11:00 +33°C° 0 mm 1 m/s 656 mmHg 40%
    12:00 +35°C° 0 mm 1 m/s 655 mmHg 35%
    13:00 +36°C° 0 mm 1 m/s 655 mmHg 30%
    14:00 +34°C° 0 mm 1 m/s 654 mmHg 37%
    15:00 +31°C° 0 mm 1 m/s 653 mmHg 45%
    16:00 +28°C° 0 mm 1 m/s 651 mmHg 52%
    17:00 +26°C° 0.6 mm 2 m/s 652 mmHg 61%
    18:00 +25°C° 0.6 mm 2 m/s 652 mmHg 70%
    19:00 +22°C° 0.6 mm 3 m/s 652 mmHg 80%
    20:00 +22°C° 0.2 mm 3 m/s 653 mmHg 81%
    21:00 +23°C° 0.2 mm 2 m/s 653 mmHg 82%
    22:00 +22°C° 0.2 mm 1 m/s 654 mmHg 84%
    23:00 +22°C° 0 mm 1 m/s 654 mmHg 86%
    Voir plus